Location: Allen Fire Department Station 4
(33.1073°N, 96.6988°W)
Time: 10:42:37
(UTC+00:00)

Cosmos 2279 Rocket - Pass Details

Date: 03 December 2021
Orbit: 964 x 978 km, 82.9° (Epoch: 24 January)

Event Time Altitude Azimuth Distance (km) Brightness Sun altitude
Rises 12:08:34 0° 351° (N) 3,656 6.7 -13.5°
Reaches altitude 10° 12:11:04 10° 349° (N) 2,706 6.0 -13.0°
Maximum altitude 12:17:14 71° 267° (W) 1,016 3.9 -11.8°
Drops below altitude 10° 12:23:21 10° 184° (S) 2,695 6.5 -10.6°
Sets 12:25:51 0° 182° (S) 3,640 7.2 -10.1°
